TimeMST,TemperatureF,Dew PointF,Humidity,Sea Level PressureIn,VisibilityMPH,Wind Direction,Wind SpeedMPH,Gust SpeedMPH,PrecipitationIn,Events,Conditions,WindDirDegrees,DateUTC
12:15 AM,51.8,30.2,44,29.64,10.0,South,3.5,-,N/A,Rain,Light Rain,170,2012-11-09 07:15:00
12:35 AM,51.8,30.2,44,29.64,10.0,SW,3.5,-,N/A,Rain,Light Rain,220,2012-11-09 07:35:00
12:55 AM,53.6,32.0,44,29.63,10.0,South,10.4,31.1,N/A,Rain,Light Rain,180,2012-11-09 07:55:00
1:15 AM,50.0,33.8,54,29.63,10.0,SSE,16.1,24.2,N/A,Rain,Light Rain,160,2012-11-09 08:15:00
1:35 AM,48.2,35.6,62,29.63,7.0,SW,9.2,-,N/A,Rain,Light Rain,220,2012-11-09 08:35:00
1:55 AM,46.4,37.4,71,29.63,10.0,SE,6.9,-,N/A,Rain,Light Rain,140,2012-11-09 08:55:00
2:15 AM,48.2,35.6,62,29.62,10.0,SSE,10.4,-,N/A,,Overcast,160,2012-11-09 09:15:00
2:35 AM,46.4,35.6,66,29.63,7.0,SSW,9.2,-,N/A,Rain,Light Rain,200,2012-11-09 09:35:00
2:55 AM,46.4,35.6,66,29.62,10.0,SSE,9.2,-,N/A,,Mostly Cloudy,160,2012-11-09 09:55:00
3:15 AM,46.4,37.4,71,29.62,10.0,SSE,6.9,-,N/A,,Mostly Cloudy,160,2012-11-09 10:15:00
3:35 AM,46.4,37.4,71,29.62,7.0,SSW,11.5,-,N/A,Thunderstorm,Thunderstorm,210,2012-11-09 10:35:00
3:55 AM,46.4,37.4,71,29.62,7.0,SSW,4.6,-,N/A,,Overcast,210,2012-11-09 10:55:00
4:15 AM,46.4,37.4,71,29.61,10.0,SE,10.4,16.1,N/A,,Overcast,130,2012-11-09 11:15:00
4:35 AM,46.4,35.6,66,29.60,5.0,SSE,13.8,17.3,N/A,,Overcast,160,2012-11-09 11:35:00
4:55 AM,46.4,37.4,71,29.59,2.5,SSW,10.4,16.1,N/A,Thunderstorm,Overcast,200,2012-11-09 11:55:00
5:15 AM,50.0,35.6,58,29.59,10.0,South,8.1,20.7,N/A,,Overcast,190,2012-11-09 12:15:00
5:35 AM,48.2,35.6,62,29.59,10.0,South,15.0,21.9,N/A,Rain,Rain,170,2012-11-09 12:35:00
5:55 AM,46.4,37.4,71,29.56,10.0,South,17.3,24.2,N/A,Thunderstorm,Drizzle,170,2012-11-09 12:55:00
6:15 AM,46.4,37.4,71,29.57,10.0,SSE,17.3,27.6,N/A,Rain,Light Rain,160,2012-11-09 13:15:00
6:35 AM,48.2,35.6,62,29.56,10.0,South,13.8,32.2,N/A,Rain,Light Rain,180,2012-11-09 13:35:00
6:55 AM,46.4,37.4,71,29.55,10.0,SSE,17.3,24.2,N/A,Rain,Light Rain,150,2012-11-09 13:55:00
7:15 AM,46.4,37.4,71,29.54,10.0,SSE,15.0,24.2,N/A,Rain,Light Rain,160,2012-11-09 14:15:00
7:35 AM,48.2,35.6,62,29.56,10.0,SSW,10.4,24.2,N/A,Rain,Light Rain,200,2012-11-09 14:35:00
7:55 AM,44.6,37.4,76,29.56,2.5,SSW,15.0,20.7,N/A,,Overcast,210,2012-11-09 14:55:00
8:15 AM,44.6,39.2,81,29.57,7.0,WSW,6.9,-,N/A,,Overcast,250,2012-11-09 15:15:00
8:35 AM,42.8,37.4,81,29.58,4.0,SSW,11.5,-,N/A,,Overcast,210,2012-11-09 15:35:00
8:55 AM,42.8,37.4,81,29.59,4.0,WSW,10.4,28.8,N/A,,Overcast,240,2012-11-09 15:55:00
9:15 AM,41.0,35.6,81,29.60,10.0,SW,13.8,21.9,N/A,,Overcast,230,2012-11-09 16:15:00
9:35 AM,39.2,35.6,87,29.60,3.0,SW,13.8,-,N/A,Thunderstorm,Thunderstorm,230,2012-11-09 16:35:00
9:55 AM,41.0,35.6,81,29.63,2.5,SW,13.8,27.6,N/A,,Overcast,220,2012-11-09 16:55:00
10:15 AM,41.0,35.6,81,29.61,3.0,WSW,5.8,-,N/A,,Overcast,250,2012-11-09 17:15:00
10:35 AM,41.0,35.6,81,29.61,10.0,West,8.1,-,N/A,,Mostly Cloudy,260,2012-11-09 17:35:00
10:55 AM,37.4,33.8,87,29.62,7.0,North,13.8,-,N/A,,Overcast,360,2012-11-09 17:55:00
11:15 AM,37.4,33.8,87,29.63,3.0,NW,5.8,-,N/A,,Overcast,310,2012-11-09 18:15:00
11:35 AM,35.6,33.8,93,29.63,2.0,North,10.4,-,N/A,,Overcast,360,2012-11-09 18:35:00
11:55 AM,32.0,32.0,100,29.62,2.0,North,11.5,-,N/A,Snow,Light Snow,10,2012-11-09 18:55:00
12:15 PM,32.0,32.0,100,29.62,4.0,East,4.6,-,N/A,Snow,Light Snow,80,2012-11-09 19:15:00
12:35 PM,33.8,32.0,93,29.60,3.0,Calm,Calm,-,N/A,Snow,Light Snow,0,2012-11-09 19:35:00
12:55 PM,32.0,32.0,100,29.59,1.0,North,13.8,-,N/A,Snow,Light Snow,360,2012-11-09 19:55:00
1:15 PM,32.0,32.0,100,29.59,1.2,North,10.4,13.8,N/A,Snow,Light Snow,10,2012-11-09 20:15:00
1:35 PM,32.0,32.0,100,29.58,3.0,NNE,12.7,19.6,N/A,Snow,Light Snow,20,2012-11-09 20:35:00
1:55 PM,32.0,32.0,100,29.58,2.0,North,12.7,-,N/A,Snow,Light Snow,360,2012-11-09 20:55:00
2:15 PM,32.0,32.0,100,29.59,1.5,NNE,10.4,-,N/A,Snow,Light Snow,20,2012-11-09 21:15:00
2:35 PM,32.0,32.0,100,29.58,1.8,ENE,4.6,-,N/A,Snow,Light Snow,70,2012-11-09 21:35:00
2:55 PM,32.0,32.0,100,29.59,1.0,East,3.5,-,N/A,Snow,Light Snow,90,2012-11-09 21:55:00
3:15 PM,32.0,32.0,100,29.58,0.5,Calm,Calm,-,N/A,Snow,Snow,0,2012-11-09 22:15:00
3:35 PM,32.0,32.0,100,29.59,0.5,ENE,5.8,-,N/A,Snow,Snow,70,2012-11-09 22:35:00
3:55 PM,32.0,32.0,100,29.57,1.0,NNE,3.5,-,N/A,Snow,Light Snow,30,2012-11-09 22:55:00
4:15 PM,32.0,32.0,100,29.59,1.5,Calm,Calm,-,N/A,Snow,Light Snow,0,2012-11-09 23:15:00
4:35 PM,32.0,32.0,100,29.58,1.8,Calm,Calm,-,N/A,Snow,Light Snow,0,2012-11-09 23:35:00
4:55 PM,32.0,30.2,93,29.59,1.0,Calm,Calm,-,N/A,Snow,Light Snow,0,2012-11-09 23:55:00
5:15 PM,32.0,30.2,93,29.59,2.0,Calm,Calm,-,N/A,Snow,Light Snow,0,2012-11-10 00:15:00
5:35 PM,32.0,30.2,93,29.59,5.0,Calm,Calm,-,N/A,Snow,Light Snow,0,2012-11-10 00:35:00
5:55 PM,32.0,32.0,100,29.60,4.0,Calm,Calm,-,N/A,Snow,Light Snow,0,2012-11-10 00:55:00
6:15 PM,32.0,30.2,93,29.61,3.0,Calm,Calm,-,N/A,Snow,Light Snow,0,2012-11-10 01:15:00
6:35 PM,32.0,30.2,93,29.61,1.8,Calm,Calm,-,N/A,Snow,Light Snow,0,2012-11-10 01:35:00
6:55 PM,32.0,30.2,93,29.62,1.8,Calm,Calm,-,N/A,Snow,Light Snow,0,2012-11-10 01:55:00
7:15 PM,32.0,30.2,93,29.62,3.0,Calm,Calm,-,N/A,Snow,Light Snow,0,2012-11-10 02:15:00
7:35 PM,32.0,30.2,93,29.62,7.0,Calm,Calm,-,N/A,Snow,Light Snow,0,2012-11-10 02:35:00
7:55 PM,32.0,30.2,93,29.63,3.0,Calm,Calm,-,N/A,Snow,Light Snow,0,2012-11-10 02:55:00
8:15 PM,32.0,30.2,93,29.63,4.0,Calm,Calm,-,N/A,Snow,Light Snow,0,2012-11-10 03:15:00
8:35 PM,32.0,30.2,93,29.63,3.0,Calm,Calm,-,N/A,Snow,Light Snow,0,2012-11-10 03:35:00
8:55 PM,32.0,30.2,93,29.64,3.0,Calm,Calm,-,N/A,Snow,Light Snow,0,2012-11-10 03:55:00
9:15 PM,32.0,30.2,93,29.64,2.0,Calm,Calm,-,N/A,Snow,Light Snow,0,2012-11-10 04:15:00
9:35 PM,30.2,30.2,100,29.64,2.0,Calm,Calm,-,N/A,Snow,Light Snow,0,2012-11-10 04:35:00
9:55 PM,30.2,30.2,100,29.64,2.5,Calm,Calm,-,N/A,Snow,Light Snow,0,2012-11-10 04:55:00
10:15 PM,30.2,30.2,100,29.64,4.0,Calm,Calm,-,N/A,Snow,Light Snow,0,2012-11-10 05:15:00
10:35 PM,32.0,28.4,87,29.64,5.0,Calm,Calm,-,N/A,Snow,Light Snow,0,2012-11-10 05:35:00
10:55 PM,32.0,28.4,87,29.64,5.0,Calm,Calm,-,N/A,Snow,Light Snow,0,2012-11-10 05:55:00
11:15 PM,30.2,28.4,93,29.64,7.0,Calm,Calm,-,N/A,Snow,Light Snow,0,2012-11-10 06:15:00
11:35 PM,30.2,30.2,100,29.64,5.0,Calm,Calm,-,N/A,Snow,Light Snow,0,2012-11-10 06:35:00
11:55 PM,30.2,28.4,93,29.64,2.5,Calm,Calm,-,N/A,Snow,Light Snow,0,2012-11-10 06:55:00